Location: *
(51.5000°N, 0.1100°W)
Time: 18:16:37
(UTC+00:00)

Cosmos 2278 - Pass Details

Date: 25 May 2024
Orbit: 837 x 853 km, 71.1° (Epoch: 16 June)

Event Time Altitude Azimuth Distance (km) Brightness Sun altitude
Rises 01:48:08 0° 325° (NW) 3,433 7.3 -13.5°
Reaches altitude 10° 01:50:45 10° 317° (NW) 2,493 6.4 -13.3°
Maximum altitude 01:55:55 36° 253° (WSW) 1,327 4.4 -13.0°
Enters shadow 01:59:44 17° 196° (SSW) 2,043 5.1 -12.7°
